Main page
METAR-TAF:

METAR-TAF

Airports :

Lamerd Airport

Lamerd, Iran

latitude: 27-22-22N, longitude: 53-11-20E, elevation: 408 m

Current weather observation

The report was made 10 hours and 56 minutes ago, at 15:00 UTC
Wind 6 kt from the West
Temperature 23°C
Humidity 44%
Pressure 1015 hPa
Visibility 10 km or more
no clouds below 1500 m and no cumulonimbus

METAR: OISR 181500Z 27006KT CAVOK 23/10 Q1015

Time: 05:26 (01:56 UTC)


TAF: missing

Weather observations and forecasts of more than 4000 airports (METAR and TAF reports).

The available stations are represented by yellow and red dots on the map.

Hover mouse over dot to see the name of the station.

Then click to see weather observations and forecasts.

To change the map : click on the green buttons with a black cross to zoom in, on the green button with a dash to zoom out, or on the green arrows for adjacent maps.


METAR-TAF: